{"data":{"norad_id":60292,"epoch":"2026-05-25T04:59:46.048704Z","epoch_age_seconds":53222,"freshness":"FRESH","line1":"1 60292U 24132Q   26145.20817186  .00106282  00000+0  34434-2 0  9990","line2":"2 60292  53.1612  57.1571 0001071  86.0342 274.0782 15.31180203103274","mean_motion":15.31180203,"eccentricity":0.0001071,"inclination_deg":53.1612,"raan_deg":57.1571,"arg_perigee_deg":86.0342,"mean_anomaly_deg":274.0782,"bstar":0.0034434,"rev_number":10327,"period_min":94.045103063548,"perigee_km":471.55624063811,"apogee_km":473.02360208467,"semimajor_km":6850.4269213614,"source":"CELESTRAK","updated_at":"2026-05-25T13:38:19.223737Z"}}